DW0841 Weather Reports


Display with metric or nautical units.
time (UTC)temp
F
wind
direction
speed
MPH
gust
MPH
rain 1hr
in
rain 24hr
in
rain mn
in
humidity
%
barometer
mb
20260904094218 49 23 2.0 3.0 0.00 0.00 0.00 75 1005.2
20260904093218 50 90 1.0 2.0 0.00 0.00 0.00 76 1005.0
20260904092218 50 270 1.0 2.0 0.00 0.00 0.00 75 1005.4
20260904091218 50 315 2.0 4.0 0.00 0.00 0.00 75 1005.5
20260904090218 51 45 5.0 11.0 0.00 0.00 0.00 74 1005.3
20260904085218 53 0.0 0.0 0.00 0.00 0.00 65 1005.8
20260904084218 53 293 1.0 3.0 0.00 0.00 0.00 63 1005.3
20260904083217 53 0.0 1.0 0.00 0.00 0.00 62 1005.0
20260904082218 53 0 2.0 5.0 0.00 0.00 0.00 62 1005.0
20260904081217 53 0.0 1.0 0.00 0.00 0.00 62 1004.9
20260904080238 53 0.0 1.0 0.00 0.02 0.00 61 1005.0
20260904075218 54 0.0 0.0 0.00 0.02 0.00 59 1005.0
20260904074218 54 0.0 2.0 0.00 0.03 0.00 59 1004.7
20260904073218 55 0.0 1.0 0.00 0.03 0.00 57 1004.6
20260904072218 55 0.0 1.0 0.00 0.03 0.00 53 1004.6
20260904071218 55 225 2.0 4.0 0.00 0.03 0.00 53 1004.8
20260904070217 55 225 1.0 2.0 0.00 0.03 0.00 51 1004.8
20260904065238 56 248 1.0 3.0 0.00 0.03 0.00 53 1004.7
20260904064218 57 293 3.0 6.0 0.00 0.03 0.00 50 1004.8
20260904063218 57 315 4.0 9.0 0.00 0.03 0.00 49 1004.9
20260904062218 57 315 3.0 4.0 0.00 0.03 0.00 50 1005.0
20260904061217 57 270 1.0 2.0 0.00 0.03 0.00 48 1005.2
20260904060217 57 293 7.0 12.0 0.00 0.03 0.00 50 1005.4
20260904055218 57 270 3.0 7.0 0.00 0.06 0.00 50 1005.2
20260904054218 58 293 4.0 7.0 0.00 0.06 0.00 51 1005.3
20260904053238 58 315 1.0 2.0 0.00 0.09 0.00 48 1005.2
20260904052217 59 293 1.0 4.0 0.00 0.11 0.00 47 1005.2
20260904051218 59 293 1.0 2.0 0.00 0.11 0.00 48 1005.2
20260904050218 60 293 2.0 4.0 0.00 0.11 0.00 48 1005.1
20260904045217 59 248 1.0 2.0 0.00 0.14 0.00 45 1005.2
20260904044218 59 0 1.0 2.0 0.00 0.17 0.00 44 1005.3
20260904043258 59 180 1.0 2.0 0.00 0.18 0.00 47 1005.4
20260904042217 59 338 1.0 2.0 0.00 0.18 0.00 48 1005.3
20260904041238 59 23 1.0 3.0 0.00 0.18 0.00 45 1005.3
20260904040238 60 0.0 0.0 0.00 0.18 0.00 44 1005.4
20260904035218 60 0.0 1.0 0.00 0.18 0.00 43 1005.7
20260904034217 60 0 3.0 11.0 0.00 0.18 0.00 46 1005.7
20260904033217 60 90 1.0 3.0 0.00 0.18 0.00 44 1005.7
20260904032218 60 293 1.0 3.0 0.00 0.18 0.00 46 1005.7
20260904031238 59 0.0 2.0 0.00 0.18 0.00 47 1005.9
20260904030217 59 158 1.0 6.0 0.00 0.18 0.00 47 1006.0
20260904025237 58 225 1.0 5.0 0.00 0.18 0.00 43 1006.2
20260904024217 58 293 3.0 6.0 0.00 0.18 0.00 44 1006.3
20260904023238 59 270 4.0 9.0 0.00 0.18 0.00 46 1006.7
20260904022217 60 0.0 1.0 0.00 0.18 0.00 45 1006.5
20260904021217 59 0.0 1.0 0.00 0.18 0.00 44 1006.8
20260904020218 58 0.0 0.0 0.00 0.18 0.00 49 1007.1
20260904015217 57 0.0 2.0 0.00 0.18 0.00 54 1007.0
20260904014258 56 0.0 1.0 0.00 0.18 0.00 52 1007.1
20260904013218 56 0.0 0.0 0.00 0.18 0.00 50 1007.2
20260904012218 56 315 2.0 5.0 0.00 0.18 0.00 49 1007.4
20260904011217 56 0.0 0.0 0.00 0.18 0.00 51 1007.2
20260904010218 56 0.0 1.0 0.00 0.18 0.00 55 1007.2
20260904005217 55 225 2.0 4.0 0.00 0.18 0.00 53 1007.2
20260904004218 55 270 4.0 7.0 0.00 0.18 0.00 51 1007.1
20260904002218 55 315 4.0 10.0 0.00 0.18 0.00 52 1007.5
20260904001217 55 0.0 4.0 0.00 0.18 0.00 55 1007.5
20260904000218 56 0.0 2.0 0.00 0.18 0.00 52 1007.5
20260903235217 56 0.0 0.0 0.00 0.18 0.00 56 1007.5
20260903234217 56 68 1.0 3.0 0.00 0.18 0.00 50 1007.6
20260903233217 55 0.0 0.0 0.00 0.18 0.00 59 1007.6
20260903232217 53 68 2.0 3.0 0.00 0.18 0.00 58 1007.8
20260903231217 52 0.0 1.0 0.00 0.18 0.00 65 1007.9
20260903230217 52 0.0 0.0 0.00 0.18 0.00 64 1008.2
20260903225217 52 0.0 0.0 0.00 0.18 0.00 60 1008.1
20260903224217 52 0.0 1.0 0.00 0.18 0.00 58 1008.1
20260903223218 52 0.0 0.0 0.00 0.18 0.00 56 1008.2
20260903222217 51 0.0 1.0 0.00 0.18 0.00 67 1008.2
20260903221218 50 45 2.0 3.0 0.00 0.18 0.00 66 1008.1
20260903220237 48 0.0 0.0 0.00 0.18 0.00 70 1008.1
20260903215217 46 45 2.0 3.0 0.00 0.18 0.00 75 1008.1
20260903214218 45 0.0 0.0 0.00 0.19 0.00 74 1008.1
20260903213217 45 0.0 0.0 0.00 0.19 0.00 73 1007.8
20260903212217 46 0.0 0.0 0.00 0.19 0.00 71 1007.5
20260903211217 46 45 2.0 4.0 0.00 0.19 0.00 71 1007.3
20260903210217 47 0.0 1.0 0.00 0.20 0.00 69 1007.3
20260903205217 48 0.0 0.0 0.00 0.20 0.00 66 1007.1
20260903204217 48 0.0 0.0 0.00 0.20 0.00 63 1006.9
20260903203217 48 0.0 1.0 0.00 0.20 0.00 66 1006.8
20260903202217 47 68 1.0 3.0 0.00 0.20 0.00 69 1006.8
20260903201217 49 0.0 0.0 0.00 0.23 0.00 67 1006.7
20260903200217 49 315 3.0 7.0 0.00 0.27 0.00 69 1006.7
20260903195217 49 338 1.0 3.0 0.00 0.30 0.00 67 1006.9
20260903194217 49 0.0 0.0 0.00 0.32 0.00 69 1006.7
20260903193217 49 0.0 2.0 0.00 0.36 0.00 67 1006.7
20260903192218 50 0.0 0.0 0.00 0.41 0.00 64 1006.6
20260903191258 50 338 1.0 3.0 0.00 0.43 0.00 66 1006.3
20260903190238 49 45 4.0 5.0 0.00 0.43 0.00 64 1006.3
20260903185217 49 90 1.0 3.0 0.00 0.43 0.00 68 1006.1
20260903184238 49 0.0 2.0 0.00 0.43 0.00 67 1005.8
20260903183217 48 135 3.0 4.0 0.00 0.43 0.00 67 1005.8
20260903182217 49 113 1.0 2.0 0.00 0.43 0.00 63 1005.8
20260903181217 49 0 1.0 3.0 0.00 0.43 0.00 63 1005.4
20260903180237 48 338 3.0 4.0 0.00 0.43 0.00 64 1005.5
20260903175217 48 0.0 1.0 0.00 0.43 0.00 66 1005.4
20260903174237 48 90 2.0 4.0 0.00 0.43 0.00 66 1005.5
20260903173217 47 180 1.0 2.0 0.00 0.43 0.00 69 1005.1
20260903172237 48 0.0 1.0 0.00 0.43 0.00 67 1005.2
20260903171217 48 45 1.0 2.0 0.00 0.43 0.00 66 1004.9
20260903170217 47 113 5.0 11.0 0.00 0.43 0.00 65 1005.1
20260903165217 47 90 1.0 2.0 0.00 0.43 0.00 66 1005.0
20260903164217 48 0 7.0 11.0 0.00 0.43 0.00 62 1004.9
20260903163217 48 293 4.0 8.0 0.00 0.43 0.00 63 1004.9
20260903162238 48 158 2.0 6.0 0.00 0.43 0.00 61 1005.0
20260903161217 48 0 2.0 5.0 0.00 0.43 0.00 60 1005.0
20260903160217 49 23 4.0 8.0 0.00 0.43 0.00 59 1004.9
20260903155217 49 203 3.0 9.0 0.00 0.43 0.00 59 1005.0
20260903154217 49 270 5.0 11.0 0.00 0.43 0.00 59 1004.8
20260903153341 48 135 2.0 6.0 0.00 0.43 0.00 60 1004.8
20260903152218 48 315 3.0 8.0 0.00 0.43 0.00 62 1004.8
20260903151217 48 225 5.0 11.0 0.00 0.43 0.00 64 1004.1
20260903150237 48 203 5.0 10.0 0.00 0.43 0.00 65 1004.5
20260903145217 48 225 5.0 9.0 0.00 0.43 0.00 64 1004.2
20260903144217 49 180 3.0 4.0 0.00 0.43 0.00 63 1004.1
20260903143217 48 270 3.0 7.0 0.00 0.43 0.00 62 1003.9
20260903142217 48 180 3.0 6.0 0.00 0.43 0.00 61 1004.2
20260903141217 48 293 4.0 7.0 0.00 0.43 0.00 59 1003.7
20260903140217 48 270 3.0 5.0 0.00 0.43 0.00 58 1003.8
20260903135216 48 315 6.0 15.0 0.00 0.43 0.43 60 1003.9
20260903134217 47 270 5.0 9.0 0.00 0.43 0.43 62 1004.0
20260903133216 48 0 2.0 3.0 0.00 0.43 0.43 61 1004.1
20260903132236 48 270 3.0 7.0 0.00 0.43 0.43 62 1004.4
20260903131217 47 338 3.0 8.0 0.00 0.43 0.43 64 1004.2
20260903130236 47 180 5.0 15.0 0.00 0.43 0.43 65 1004.3
20260903125216 47 293 5.0 10.0 0.00 0.43 0.43 65 1004.1
20260903124217 47 248 5.0 15.0 0.00 0.43 0.43 66 1004.2
20260903123216 45 248 3.0 9.0 0.00 0.43 0.43 67 1004.0
20260903122217 46 338 2.0 3.0 0.00 0.43 0.43 67 1003.8
20260903121216 46 315 2.0 5.0 0.00 0.43 0.43 67 1003.7
20260903120236 47 270 1.0 2.0 0.00 0.43 0.43 65 1003.5
20260903115217 46 0 2.0 3.0 0.00 0.43 0.43 66 1003.7
20260903114237 46 225 3.0 6.0 0.00 0.43 0.43 67 1003.6
20260903113216 47 180 4.0 7.0 0.00 0.43 0.43 66 1003.5
20260903112216 47 270 4.0 9.0 0.00 0.43 0.43 66 1003.7
20260903111237 46 270 4.0 6.0 0.00 0.43 0.43 67 1003.6
20260903110217 46 0 7.0 11.0 0.00 0.43 0.43 69 1003.2
20260903105217 46 248 2.0 2.0 0.00 0.43 0.43 69 1003.0
20260903104216 46 225 6.0 13.0 0.00 0.43 0.43 72 1003.0
20260903103216 46 293 3.0 7.0 0.00 0.43 0.43 72 1002.9
20260903102216 46 293 3.0 6.0 0.00 0.43 0.43 72 1002.7
20260903101216 46 270 6.0 14.0 0.00 0.43 0.43 72 1002.6